Location: Newark
(23.1300°N, 73.6109°E)
Time: 22:47:35
(UTC+00:00)

NOAA 18 - Pass Details

Date: 22 June 2021
Orbit: 840 x 861 km, 99.0° (Epoch: 27 July)

Event Time Altitude Azimuth Distance (km) Brightness Sun altitude
Exits shadow 16:37:30 62° 360° (N) 961 5.5 -30.8°
Drops below altitude 10° 16:42:03 10° 349° (N) 2,492 8.3 -31.5°
Sets 16:44:26 0° 349° (N) 3,432 9.2 -31.9°
